18.05.2024;05:00;1
18.05.2024;04:00;1
18.05.2024;03:00;2
18.05.2024;02:00;2
18.05.2024;01:00;3
18.05.2024;00:00;3
17.05.2024;23:00;4
17.05.2024;22:00;4
17.05.2024;21:00;5
17.05.2024;20:00;6
17.05.2024;19:00;6
17.05.2024;18:00;7
17.05.2024;17:00;7
17.05.2024;16:00;7
17.05.2024;15:00;7
17.05.2024;14:00;7
17.05.2024;13:00;8
17.05.2024;12:00;8
17.05.2024;11:00;8
17.05.2024;10:00;8
17.05.2024;09:00;9
17.05.2024;08:00;9
17.05.2024;07:00;9
17.05.2024;06:00;10
17.05.2024;05:00;10
17.05.2024;04:00;10
17.05.2024;03:00;10
17.05.2024;02:00;10
17.05.2024;01:00;10
17.05.2024;00:00;10
16.05.2024;23:00;9
16.05.2024;22:00;9
16.05.2024;21:00;9
16.05.2024;20:00;8
16.05.2024;19:00;8
16.05.2024;18:00;7
16.05.2024;17:00;7
16.05.2024;16:00;7
16.05.2024;15:00;7
16.05.2024;14:00;7
16.05.2024;13:00;7
16.05.2024;12:00;7
16.05.2024;11:00;7
16.05.2024;10:00;7
16.05.2024;09:00;7
16.05.2024;08:00;7
16.05.2024;07:00;6
16.05.2024;06:00;6
